VNREDSAT 1

导读

VNREDSat 1是越南(VN)首颗遥感探测卫星,于2013年5月7日发射入轨。这颗微型卫星由法国援助、欧洲宇航制造,重约120-130公斤,设计寿命5年,截至2023已超期服役十年,为越南提供近16万张遥感图像,支撑其灾害管理、国土测绘、生态保护与国防安全等领域,是越南航天发展的重要里程碑,也是越法航天合作的标志性成果。

Basic Information
目录编号:
39160
目录名称:
VNREDSAT 1
国际标识:
2013-021B
轨道中心:
EARTH
卫星名称:
VNREDSAT 1
卫星全名:
--
卫星状态:
在轨 (已飞行4830 天)
发射日期:
2013-05-07 UTC
国别 :
越南 (VN)
星等 :
--
Orbit Information
数据来源 国际轨道数据 AOE轨道数据
星历时间 2026-07-28T06:27:59+0800
11小时前
查看轨道信息
2026-07-28T00:00:00+0800
17小时前
查看轨道信息
半长轴 7055.551km 7055.555km
偏心率 0.0001448 0.0001338
轨道倾角 97.906° 97.906°
近地点辐角 82.651° 80.261°
升交点赤经 260.783° 260.526°
平近点角 277.485° 299.852°
近地点 676.392km 676.473km
远地点 678.436km 678.363km
周期 98.301分钟 98.301分钟
每日圈数 14.648947 14.648933
Detailed Information
使用方式:
暂无
2D Orbit Map
3D Orbit Map
Orbit Altitude Analysis Chart
Orbit Inclination Analysis Chart
Orbit Comprehensive Analysis Chart
View Comprehensive Chart